| time (UTC) | temp C | wind direction | speed KPH | gust KPH | rain 1hr cm | rain 24hr cm | rain mn cm | humidity % | barometer mb |
| 20260504014600 | 10 | 153 | 0.0 | 4.8 | 0.00 | 0.00 | 0.00 | 58 | 1012.3 |
| 20260504013053 | 10 | 172 | 0.0 | 3.2 | 0.00 | 0.00 | 0.00 | 58 | 1012.0 |
| 20260504011554 | 10 | 133 | 0.0 | 3.2 | 0.00 | 0.00 | 0.00 | 57 | 1012.1 |
| 20260504010056 | 11 | 0 | 0.0 | 3.2 | 0.00 | 0.00 | 0.00 | 55 | 1012.1 |
| 20260504004550 | 11 | 0 | 0.0 | 3.2 | 0.00 | 0.00 | 0.00 | 52 | 1012.1 |
| 20260504003059 | 12 | 167 | 1.6 | 4.8 | 0.00 | 0.00 | 0.00 | 50 | 1012.0 |
| 20260504001601 | 12 | 146 | 3.2 | 6.4 | 0.00 | 0.00 | 0.00 | 48 | 1012.1 |
| 20260504000048 | 12 | 129 | 3.2 | 9.7 | 0.00 | 0.00 | 0.00 | 47 | 1012.1 |
| 20260503234551 | 13 | 157 | 3.2 | 9.7 | 0.00 | 0.00 | 0.00 | 46 | 1012.2 |
| 20260503233046 | 13 | 184 | 3.2 | 9.7 | 0.00 | 0.00 | 0.00 | 46 | 1012.3 |
| 20260503231542 | 13 | 202 | 3.2 | 17.7 | 0.00 | 0.00 | 0.00 | 48 | 1012.3 |
| 20260503230047 | 13 | 159 | 4.8 | 14.5 | 0.00 | 0.00 | 0.00 | 45 | 1012.3 |
| 20260503224548 | 13 | 176 | 3.2 | 14.5 | 0.00 | 0.00 | 0.00 | 45 | 1012.4 |
| 20260503223052 | 13 | 142 | 4.8 | 12.9 | 0.00 | 0.00 | 0.00 | 45 | 1012.4 |
| 20260503221548 | 13 | 143 | 6.4 | 14.5 | 0.00 | 0.00 | 0.00 | 44 | 1012.7 |
| 20260503220051 | 13 | 188 | 4.8 | 16.1 | 0.00 | 0.00 | 0.00 | 44 | 1012.6 |
| 20260503214549 | 14 | 352 | 4.8 | 12.9 | 0.00 | 0.00 | 0.00 | 46 | 1012.6 |
| 20260503213055 | 14 | 128 | 4.8 | 16.1 | 0.00 | 0.00 | 0.00 | 44 | 1012.6 |
| 20260503211554 | 14 | 190 | 4.8 | 14.5 | 0.00 | 0.00 | 0.00 | 44 | 1012.5 |
| 20260503204553 | 15 | 152 | 4.8 | 16.1 | 0.00 | 0.00 | 0.00 | 44 | 1012.5 |
| 20260503203050 | 15 | 21 | 6.4 | 20.9 | 0.00 | 0.00 | 0.00 | 43 | 1012.6 |
| 20260503201552 | 15 | 81 | 4.8 | 14.5 | 0.00 | 0.00 | 0.00 | 39 | 1012.9 |
| 20260503200053 | 15 | 118 | 1.6 | 19.3 | 0.00 | 0.00 | 0.00 | 43 | 1013.1 |
| 20260503194548 | 15 | 81 | 4.8 | 12.9 | 0.00 | 0.00 | 0.00 | 42 | 1013.3 |
| 20260503193052 | 14 | 229 | 1.6 | 12.9 | 0.00 | 0.00 | 0.00 | 42 | 1013.6 |
| 20260503191549 | 14 | 107 | 3.2 | 20.9 | 0.00 | 0.00 | 0.00 | 43 | 1013.7 |
| 20260503190049 | 15 | 48 | 6.4 | 14.5 | 0.00 | 0.00 | 0.00 | 44 | 1014.1 |
| 20260503184603 | 15 | 282 | 4.8 | 16.1 | 0.00 | 0.00 | 0.00 | 46 | 1014.3 |
| 20260503183058 | 14 | 209 | 4.8 | 20.9 | 0.00 | 0.00 | 0.00 | 45 | 1014.3 |
| 20260503181554 | 14 | 210 | 6.4 | 17.7 | 0.00 | 0.00 | 0.00 | 44 | 1014.4 |
| 20260503180049 | 14 | 109 | 4.8 | 14.5 | 0.00 | 0.00 | 0.00 | 48 | 1014.6 |
| 20260503174550 | 14 | 49 | 3.2 | 16.1 | 0.00 | 0.00 | 0.00 | 46 | 1014.7 |
| 20260503173056 | 13 | 91 | 3.2 | 17.7 | 0.00 | 0.00 | 0.00 | 45 | 1014.9 |
| 20260503171549 | 14 | 74 | 3.2 | 12.9 | 0.00 | 0.00 | 0.00 | 46 | 1015.1 |
| 20260503081612 | 0 | 0 | 0.0 | 1.6 | 0.00 | 0.03 | 0.00 | 90 | 1015.5 |
| 20260503080108 | 0 | 0 | 0.0 | 1.6 | 0.00 | 0.03 | 0.00 | 90 | 1015.5 |
| 20260503071554 | 1 | 0 | 0.0 | 1.6 | 0.00 | 0.03 | 0.00 | 89 | 1015.6 |
| 20260503054555 | 2 | 0 | 0.0 | 0.0 | 0.00 | 0.05 | 0.00 | 83 | 1015.8 |
| 20260503053053 | 3 | 268 | 0.0 | 1.6 | 0.00 | 0.05 | 0.00 | 81 | 1015.8 |
| 20260503051557 | 3 | 0 | 0.0 | 1.6 | 0.00 | 0.05 | 0.00 | 81 | 1015.8 |
| 20260503050051 | 3 | 0 | 0.0 | 1.6 | 0.00 | 0.05 | 0.00 | 81 | 1015.9 |
| 20260503044554 | 3 | 0 | 0.0 | 1.6 | 0.00 | 0.05 | 0.00 | 81 | 1015.9 |
| 20260503043050 | 3 | 0 | 0.0 | 0.0 | 0.00 | 0.05 | 0.00 | 80 | 1016.0 |
| 20260503041551 | 3 | 0 | 0.0 | 0.0 | 0.00 | 0.05 | 0.00 | 81 | 1016.0 |
| 20260503040052 | 3 | 0 | 0.0 | 0.0 | 0.00 | 0.05 | 0.00 | 82 | 1016.1 |
| 20260503034554 | 3 | 0 | 0.0 | 0.0 | 0.00 | 0.05 | 0.05 | 83 | 1016.1 |
| 20260503033105 | 3 | 0 | 0.0 | 0.0 | 0.00 | 0.05 | 0.05 | 83 | 1016.2 |
| 20260503031556 | 3 | 0 | 0.0 | 0.0 | 0.00 | 0.05 | 0.05 | 82 | 1016.3 |
| 20260503030047 | 3 | 0 | 0.0 | 0.0 | 0.00 | 0.05 | 0.05 | 81 | 1016.4 |
| 20260503024610 | 3 | 0 | 0.0 | 0.0 | 0.00 | 0.05 | 0.05 | 79 | 1016.4 |
| 20260503023054 | 3 | 0 | 0.0 | 0.0 | 0.00 | 0.05 | 0.05 | 78 | 1016.6 |
| 20260503021600 | 3 | 0 | 0.0 | 0.0 | 0.00 | 0.05 | 0.05 | 78 | 1016.5 |
| 20260503020050 | 3 | 0 | 0.0 | 0.0 | 0.00 | 0.05 | 0.05 | 77 | 1016.5 |